Flag for Canada Weather past 2 weeks in Campbell River, British Columbia, Canada

Now
39 °F

Mostly cloudy.


Feels Like: 39 °F
Forecast: 38 / 53 °F
Wind: No wind

Location: Campbell River Airport

Current Time: Mar 5, 2015 at 10:20:39 PM

Latest Report: Mar 5, 2015 at 9:00 PM


Visibility: 15 mi

Pressure: 30.41 "Hg

Humidity: 93%

Dew point: 37 °F

Location of Campbell RiverLocation

Historic Weather in Campbell River — Graph

°F

Campbell River temperature yesterday

Maximum temperature yesterday: 46 °F (at 1:00 PM)
Minimum temperature yesterday: 25 °F (at 6:00 AM)
Average temperature yesterday: 38 °F

Past Weeks' High & Low Weather Summary

 TemperatureHumidityPressure
High57 °F (Feb 21, 2:00 PM)100% (Feb 18, 9:00 PM)30.50 "Hg (Feb 18, 9:00 PM)
Low25 °F (Feb 22, 6:00 AM)26% (Mar 2, 3:00 PM)29.84 "Hg (Feb 27, 7:00 AM)
Average42 °F78%30.26 "Hg
* Reported Feb 18 9:00 PM — Mar 5 9:00 PM, Campbell River, Weather by CustomWeather, © 2015

Note: Actual official high and low records may vary slightly from our data, if they occured in-between our weather recording intervals... More about our weather records

Advertising

Campbell River weather history for previous 24 hours

 ConditionsComfort  
Time TempWeatherWind HumidityBarometerVisibility
9:00 PM
Thu, Mar 5
39 °FMostly cloudy.No wind93%30.41 "Hg15 mi
8:00 PM43 °FMostly cloudy.2 mph81%30.40 "Hg15 mi
7:00 PM41 °FOvercast.2 mph87%30.41 "Hg15 mi
6:00 PM45 °FMostly cloudy.2 mph76%30.39 "Hg30 mi
5:00 PM45 °FOvercast.6 mph71%30.39 "Hg30 mi
4:00 PM45 °FOvercast.3 mph76%30.39 "Hg30 mi
3:00 PM46 °FOvercast.6 mph71%30.38 "Hg30 mi
2:00 PM46 °FMostly cloudy.5 mph71%30.38 "Hg20 mi
1:00 PM46 °FMore clouds than sun.6 mph71%30.38 "Hg15 mi
12:00 PM45 °FMostly cloudy.5 mph76%30.40 "Hg15 mi
11:00 AM43 °FMore clouds than sun.No wind87%30.39 "Hg15 mi
10:00 AM41 °FMostly cloudy.No wind87%30.38 "Hg15 mi
9:00 AM37 °FMostly cloudy.3 mph100%30.38 "Hg10 mi
8:00 AM36 °FMostly cloudy.2 mph93%30.36 "Hg15 mi
7:00 AM32 °FMostly cloudy.3 mph100%30.34 "Hg8 mi
6:00 AM32 °FMostly cloudy.No wind100%30.33 "Hg10 mi
Weather by CustomWeather, © 2015

See weather overviewHow to use our weather pages